[[{"header":{"parameterUnit":"m.s-1","parameterCategory":1,"la1":30.2991,"la2":30.254,"lo1":-89.0895,"lo2":-89.0444,"dy":0.0017,"dx":0.0017,"nx":28,"ny":28,"refTime":"2023-08-22T03:00:00:Z","depth":0,"parameterNumber":2,"parameterNumberName":"U-component_of_WINDS"},"data":[0,0,0,0,0,0,0,0,0,0,0,0,0,0,0,0,0,0,0,0,0,0,0,0,0,0,0,0,0,0,0,0,0,0,0,0,0,0,0,0,0,0,0,0,0,0,0,0,0,0,0,0,0,0,0,0,0,0,0.7499,0.7498,0,0.7397,0.7396,0.7395,0.7305,0.7304,0.7303,0.7302,0.7197,0.7196,0.7194,0,0,0,0,0,0,0,0,0,0,0,0,0,0.7617,0.7615,0.7499,0.7498,0.7497,0.7398,0.7396,0.7395,0.7306,0.7304,0.7303,0.7302,0.7198,0.7196,0.7194,0,0,0,0,0,0,0,0,0,0,0,0,0,0.7545,0.7614,0.75,0.744,0.7434,0.7398,0.7396,0.7394,0.7306,0.7304,0.7303,0.7301,0.7199,0.7196,0.7193,0.7208,0,0,0.7185,0.7184,0,0,0,0,0,0,0,0,0.755,0.7541,0.745,0.7444,0.7437,0.7363,0.7399,0.7332,0.7306,0.7354,0.7302,0.73,0.7254,0.7246,0.7231,0.7203,0.7198,0.7185,0.7183,0.7182,0.7181,0,0,0,0,0,0,0,0.7555,0.7545,0.7459,0.7449,0.7441,0.7419,0.7407,0.7386,0.7314,0.735,0.7343,0.7333,0.725,0.7233,0.7227,0.7197,0.7185,0.7182,0.7181,0.718,0.7177,0.7179,0,0,0,0,0,0,0.7569,0.755,0.7462,0.7456,0.7491,0.7418,0.7405,0.7388,0.7314,0.7301,0.7334,0.7329,0.7239,0.7231,0.7223,0.7237,0.7182,0.7179,0.7178,0.7176,0.7178,0.718,0,0,0,0,0,0,0.7572,0.7562,0.7466,0.7501,0.7487,0.7418,0.74,0.7387,0.737,0.7302,0.7288,0.7331,0.7237,0.7227,0.7213,0.7232,0.7178,0.7176,0.7174,0.7177,0.7179,0.7263,0,0,0,0,0,0,0.7575,0.7563,0.7568,0.7502,0.7486,0.7458,0.7401,0.7386,0.7366,0.7358,0.7295,0.7283,0.7235,0.7217,0.721,0.7227,0.7174,0.7172,0.7175,0.7178,0.7258,0.7268,0.7277,0,0,0,0,0,0.758,0.7595,0.7569,0.7558,0.749,0.7459,0.745,0.7394,0.7368,0.7372,0.7328,0.7285,0.7231,0.7217,0.7208,0.7224,0.7171,0.7174,0.7178,0.7254,0.7266,0.7276,0,0,0,0,0,0,0.7665,0.7585,0.7555,0.7549,0.7512,0.7444,0.7447,0.7409,0.7377,0.7371,0.7304,0.729,0.7284,0.7252,0.7238,0.7235,0.7195,0.7197,0.7256,0.7267,0.7276,0.7284,0.7171,0,0,0,0,0,0.7683,0.7664,0.7596,0.7597,0.758,0.7517,0.7502,0.7463,0.7421,0.7404,0.7359,0.732,0.7294,0.7278,0.7251,0.7253,0.7239,0.726,0.7269,0.7277,0.728,0.7281,0.729,0.7191,0.7191,0.7191,0,0,0.772,0.7674,0.7667,0.7613,0.7579,0.7562,0.7504,0.7488,0.7475,0.7401,0.7386,0.7351,0.7303,0.7298,0.7293,0.7271,0.7304,0.7282,0.7288,0.7287,0.7285,0.7295,0.7303,0.7194,0.7193,0.7193,0,0,0.7779,0.7742,0.7741,0.7708,0.7658,0.7616,0.7616,0.7554,0.7529,0.7512,0.7457,0.744,0.7397,0.7366,0.7344,0.7393,0.7353,0.7386,0.7434,0.7435,0.7443,0.745,0.7469,0.7477,0.7389,0.7389,0.7389,0,0.7832,0.7804,0.7745,0.7732,0.7711,0.7644,0.7643,0.7614,0.7558,0.7545,0.7521,0.7466,0.7429,0.7416,0.7429,0.7413,0.7411,0.7393,0.7447,0.7453,0.7458,0.7476,0.7483,0.7393,0.7393,0.7392,0.7392,0,0.7872,0.7854,0.7858,0.7806,0.7785,0.7778,0.7719,0.7705,0.7668,0.7629,0.7613,0.7566,0.7529,0.7523,0.7486,0.7506,0.7494,0.7459,0.7418,0.7473,0.7489,0.7495,0.74,0.7398,0.7397,0.7396,0,0,0.7982,0.7899,0.7901,0.7878,0.7818,0.7803,0.7793,0.7757,0.7747,0.771,0.7702,0.7667,0.7636,0.7611,0.757,0.7572,0.7616,0.7537,0.7535,0.7555,0.7637,0.7665,0.7674,0.7589,0.7589,0.759,0.7642,0,0.8033,0.8013,0.796,0.7956,0.7939,0.7876,0.7868,0.7831,0.7794,0.7775,0.7734,0.7712,0.767,0.7656,0.7654,0.7611,0.7632,0.7606,0.7581,0.7581,0.7597,0.7681,0.771,0.7761,0.7647,0.7648,0.7649,0,0.809,0.8059,0.8054,0.7996,0.7987,0.7981,0.7945,0.7926,0.7883,0.7857,0.7831,0.7786,0.7773,0.7734,0.7716,0.77,0.7686,0.7664,0.7665,0.7661,0.762,0.7683,0.7776,0.7785,0.7658,0.7657,0.7656,0,0.8174,0.813,0.8121,0.8103,0.8035,0.8033,0.8004,0.796,0.7942,0.791,0.7898,0.7865,0.7848,0.7823,0.7771,0.7747,0.776,0.7716,0.7739,0.774,0.7745,0.7746,0.784,0.7734,0.7734,0.7734,0.7733,0,0.8237,0.8237,0.8159,0.8154,0.8152,0.8091,0.8091,0.8057,0.8018,0.8006,0.7948,0.7938,0.7869,0.7851,0.7809,0.7802,0.7794,0.7773,0.7763,0.778,0.7783,0.7771,0.7767,0.7735,0.7735,0.7735,0.7734,0,0.8331,0.8278,0.8265,0.8203,0.8187,0.8189,0.8135,0.8129,0.8089,0.8075,0.8068,0.8006,0.7982,0.7927,0.7887,0.786,0.7864,0.7843,0.7879,0.7873,0.79,0.7899,0.7991,0.8001,0.7887,0.7888,0.7889,0,0.8376,0.8375,0.8313,0.8301,0.8275,0.8256,0.8238,0.8178,0.8162,0.8114,0.8113,0.8085,0.8059,0.8024,0.7976,0.7946,0.7925,0.796,0.7921,0.7938,0.7929,0.793,0.7931,0.7969,0.7971,0.7972,0.7973,0,0.8463,0.8437,0.8413,0.8382,0.8362,0.8334,0.8302,0.8295,0.8228,0.8213,0.8188,0.8168,0.8129,0.8102,0.8066,0.8036,0.7995,0.7985,0.7989,0.8008,0.803,0.8021,0.7905,0.7984,0.7983,0.7982,0.7981,0.7981,0.8535,0.8532,0.8488,0.8464,0.8434,0.8406,0.8398,0.8358,0.8336,0.83,0.8265,0.8245,0.8203,0.8149,0.8123,0.8106,0.8085,0.809,0.8092,0.8095,0.8103,0.8031,0.8099,0.8099,0.8098,0.8098,0.8098,0,0.862,0.8589,0.8568,0.8526,0.8508,0.847,0.8433,0.8421,0.8403,0.8368,0.8344,0.8317,0.8291,0.8241,0.821,0.8207,0.8187,0.8201,0.8202,0.8196,0.8123,0.8124,0.8218,0.8218,0.8218,0.8218,0.8218,0.8218,0.8663,0.8656,0.8625,0.8604,0.8572,0.8552,0.8535,0.8509,0.8481,0.8453,0.8431,0.8399,0.8358,0.8325,0.8299,0.8285,0.8278,0.8299,0.8279,0.8212,0.8201,0.819,0.8191,0.8297,0.8297,0.8354,0.8354,0.8355]},{"header":{"parameterUnit":"m.s-1","parameterCategory":1,"la1":30.2991,"la2":30.254,"lo1":-89.0895,"lo2":-89.0444,"dy":0.0017,"dx":0.0017,"nx":28,"ny":28,"refTime":"2023-08-22T03:00:00:Z","depth":0,"parameterNumber":3,"parameterNumberName":"V-component_of_WINDS"},"data":[0,0,0,0,0,0,0,0,0,0,0,0,0,0,0,0,0,0,0,0,0,0,0,0,0,0,0,0,0,0,0,0,0,0,0,0,0,0,0,0,0,0,0,0,0,0,0,0,0,0,0,0,0,0,0,0,0,0,-3.3883,-3.3883,0,-3.3937,-3.3938,-3.3939,-3.3901,-3.3899,-3.3897,-3.3896,-3.3949,-3.3952,-3.3955,0,0,0,0,0,0,0,0,0,0,0,0,0,-3.3743,-3.3746,-3.3883,-3.3883,-3.3884,-3.3937,-3.3938,-3.3939,-3.3901,-3.3899,-3.3897,-3.3895,-3.3948,-3.3951,-3.3955,0,0,0,0,0,0,0,0,0,0,0,0,0,-3.3801,-3.3747,-3.3883,-3.3872,-3.3871,-3.3937,-3.3938,-3.3939,-3.3901,-3.3899,-3.3896,-3.3894,-3.3947,-3.3951,-3.3955,-3.4034,0,0,-3.3969,-3.3971,0,0,0,0,0,0,0,0,-3.3798,-3.3806,-3.3873,-3.3873,-3.3872,-3.391,-3.3908,-3.3971,-3.3902,-3.389,-3.3896,-3.3893,-3.3938,-3.3943,-3.3958,-3.4036,-3.4039,-3.3969,-3.3972,-3.3974,-3.3975,0,0,0,0,0,0,0,-3.3794,-3.3804,-3.3904,-3.3874,-3.3873,-3.3863,-3.3869,-3.392,-3.3927,-3.3891,-3.3888,-3.3895,-3.3937,-3.3954,-3.3959,-3.4039,-3.3969,-3.3973,-3.3976,-3.3978,-3.4185,-3.4187,0,0,0,0,0,0,-3.3791,-3.3801,-3.3902,-3.3906,-3.3828,-3.3868,-3.3874,-3.39,-3.3927,-3.3928,-3.3897,-3.3893,-3.3948,-3.3954,-3.3961,-3.4055,-3.3974,-3.3978,-3.3981,-3.4182,-3.4185,-3.4188,0,0,0,0,0,0,-3.3788,-3.3801,-3.39,-3.3853,-3.3864,-3.3873,-3.3903,-3.3903,-3.392,-3.3932,-3.3932,-3.3914,-3.3946,-3.3955,-3.4016,-3.4056,-3.398,-3.3984,-3.4179,-3.4183,-3.4187,-3.4243,0,0,0,0,0,0,-3.3784,-3.38,-3.383,-3.3854,-3.3867,-3.3956,-3.3905,-3.3905,-3.3928,-3.3923,-3.3947,-3.3949,-3.3945,-3.401,-3.4021,-3.4061,-3.3988,-3.4175,-3.4181,-3.4186,-3.4238,-3.4249,-3.4258,0,0,0,0,0,-3.378,-3.3843,-3.3832,-3.3845,-3.3906,-3.3958,-3.3966,-3.396,-3.3931,-3.3962,-3.3969,-3.3948,-3.405,-3.4017,-3.4028,-3.4071,-3.4173,-3.4179,-3.4185,-3.4233,-3.4247,-3.4258,0,0,0,0,0,0,-3.3823,-3.3846,-3.3834,-3.3907,-3.3931,-3.3952,-3.399,-3.3975,-3.4007,-3.4001,-3.3992,-3.3998,-3.4062,-3.4072,-3.4035,-3.4148,-3.4107,-3.4116,-3.4139,-3.4152,-3.4162,-3.4158,-3.3992,0,0,0,0,0,-3.3842,-3.3883,-3.3901,-3.3964,-3.3976,-3.3981,-3.4004,-3.3998,-3.4022,-3.4031,-3.4043,-3.4066,-3.4104,-3.4128,-3.4163,-3.4239,-3.4244,-3.4274,-3.4284,-3.4293,-3.43,-3.4341,-3.4355,-3.4209,-3.4209,-3.4209,0,0,-3.388,-3.3897,-3.3924,-3.3973,-3.3991,-3.4033,-3.399,-3.4036,-3.4067,-3.4038,-3.4097,-3.4107,-3.4132,-3.4201,-3.4232,-3.4212,-3.4342,-3.4301,-3.4307,-3.4311,-3.4349,-3.4363,-3.4375,-3.4213,-3.4213,-3.4212,0,0,-3.3971,-3.3989,-3.4043,-3.4062,-3.409,-3.4093,-3.4106,-3.4129,-3.4135,-3.4194,-3.4173,-3.421,-3.4274,-3.4293,-3.4311,-3.441,-3.4391,-3.4422,-3.4475,-3.4515,-3.4526,-3.4536,-3.4572,-3.4584,-3.4429,-3.443,-3.443,0,-3.4014,-3.4078,-3.4073,-3.4121,-3.4143,-3.412,-3.4175,-3.4193,-3.423,-3.4246,-3.4223,-3.4303,-3.4319,-3.4392,-3.4416,-3.4432,-3.4446,-3.4419,-3.4525,-3.4535,-3.4545,-3.4578,-3.4591,-3.4433,-3.4433,-3.4432,-3.4432,0,-3.413,-3.4175,-3.4215,-3.4254,-3.428,-3.4331,-3.4333,-3.436,-3.4352,-3.4358,-3.4418,-3.4436,-3.4474,-3.4491,-3.4483,-3.4564,-3.455,-3.4527,-3.4484,-3.4562,-3.4593,-3.4606,-3.4438,-3.4437,-3.4436,-3.4435,0,0,-3.4249,-3.4285,-3.43,-3.4317,-3.4346,-3.438,-3.443,-3.4469,-3.4493,-3.4519,-3.4561,-3.4616,-3.4595,-3.4615,-3.4609,-3.4644,-3.4722,-3.4616,-3.4617,-3.4635,-3.4811,-3.4829,-3.4844,-3.471,-3.4712,-3.4714,-3.4809,0,-3.4342,-3.4431,-3.4427,-3.451,-3.4551,-3.4529,-3.4573,-3.4595,-3.4602,-3.4637,-3.4643,-3.4683,-3.4651,-3.4663,-3.4697,-3.4705,-3.4757,-3.4698,-3.4747,-3.4749,-3.4742,-3.486,-3.4879,-3.4967,-3.4821,-3.4823,-3.4825,0,-3.4462,-3.4494,-3.4581,-3.4604,-3.4621,-3.4661,-3.4696,-3.473,-3.4755,-3.4757,-3.4781,-3.4769,-3.4819,-3.4776,-3.4845,-3.4805,-3.4825,-3.4832,-3.4835,-3.4839,-3.4791,-3.4867,-3.4995,-3.5009,-3.4844,-3.4842,-3.4841,0,-3.454,-3.4605,-3.4665,-3.4681,-3.471,-3.4738,-3.4751,-3.4774,-3.4797,-3.4828,-3.4843,-3.4878,-3.4898,-3.4925,-3.4923,-3.4892,-3.4993,-3.495,-3.4995,-3.4996,-3.5017,-3.5016,-3.515,-3.5031,-3.503,-3.503,-3.503,0,-3.4643,-3.4697,-3.4701,-3.4738,-3.4798,-3.4793,-3.4852,-3.4862,-3.4883,-3.4921,-3.4904,-3.494,-3.4936,-3.4972,-3.497,-3.5027,-3.5036,-3.5039,-3.5038,-3.504,-3.504,-3.5053,-3.5046,-3.5034,-3.5033,-3.5032,-3.5032,0,-3.4741,-3.4745,-3.481,-3.4833,-3.484,-3.4883,-3.4902,-3.4937,-3.4942,-3.499,-3.5001,-3.5009,-3.5051,-3.5052,-3.5099,-3.5098,-3.5168,-3.516,-3.516,-3.5158,-3.5204,-3.5199,-3.5351,-3.5371,-3.5238,-3.524,-3.5241,0,-3.4806,-3.4848,-3.4875,-3.49,-3.4916,-3.4956,-3.498,-3.4977,-3.5003,-3.5035,-3.5066,-3.5106,-3.5138,-3.5205,-3.5214,-3.5251,-3.5243,-3.5294,-3.5248,-3.525,-3.5244,-3.5241,-3.5245,-3.5303,-3.5304,-3.5305,-3.5306,0,-3.4922,-3.4923,-3.4959,-3.4997,-3.5026,-3.5055,-3.5082,-3.5103,-3.5103,-3.5133,-3.5176,-3.5201,-3.525,-3.529,-3.5325,-3.5337,-3.5322,-3.5321,-3.5333,-3.5336,-3.5334,-3.5336,-3.5184,-3.5317,-3.5316,-3.5315,-3.5315,-3.5314,-3.5006,-3.5041,-3.5067,-3.5108,-3.5128,-3.5153,-3.5188,-3.5197,-3.5234,-3.5274,-3.527,-3.5318,-3.5341,-3.5387,-3.5403,-3.5439,-3.5422,-3.544,-3.5444,-3.5449,-3.5454,-3.5329,-3.5446,-3.5445,-3.5445,-3.5445,-3.5445,0,-3.5121,-3.5136,-3.5174,-3.5213,-3.5245,-3.5229,-3.5258,-3.5285,-3.5328,-3.5352,-3.5384,-3.5433,-3.5472,-3.5485,-3.5522,-3.5549,-3.5543,-3.5559,-3.5557,-3.556,-3.5467,-3.5453,-3.5564,-3.5564,-3.5564,-3.5564,-3.5564,-3.5564,-3.5184,-3.5244,-3.5248,-3.5317,-3.5332,-3.5379,-3.5397,-3.542,-3.544,-3.5496,-3.5529,-3.5537,-3.5556,-3.5595,-3.563,-3.5633,-3.5647,-3.5666,-3.5666,-3.5579,-3.5567,-3.5555,-3.5542,-3.5669,-3.567,-3.5756,-3.5756,-3.5757]}]]